Погода в Червянке

Поиск расширенной информации на нашем сайте:

Полезная информация:

Новости сайта



02.01.2020
Опубликован Долгосрочный прогноз погоды по городам России и ближнего зарубежья на январь 2020 года.
Карты: Прогноз на январь и февраль 2020 года, Сравнение прогнозируемой аномалии приземной температуры воздуха на январь 2020 года по разным моделям.




Погода в Червянке - сегодня

Время (UTC), дата Ветер
(°,м/с) 
Видим.   Явления Облачность Т
(°С)
Тd
(°С)
f(%) Тe
(°С)
Pmin
(гПа)
dP
(гПа)
Po
(мм)
O2
(г/м3)
Тmin Tmax R s Состояние
почвы
00 30.11.20 240 (ЮЗ) н/о    8/0 средняя 
[Ac trans]
-13 -13 100 -15  1040  -0.1  758  322  -17.5      равномерный
сухой снег
100% 
03 30.11.20 190 (Ю) 20000 м    3/0 верхняя 
[Ci fib]
-15.2 -15.2 100 -15  1040.7  0.4  758  325           
06 30.11.20 250 (З) 20000 м    8/0 верхняя 
[Cs]
-9.2 -12.8 75 -11  1039.9  -0.1  758  317           
09 30.11.20 240 (ЮЗ) 20000 м    10/0 средняя, верхняя 
[Ac lent|Cs]
-12.1 -14.8 80 -14  1040.2  758  321           
12 30.11.20 220 (ЮЗ) н/о    1/0 средняя 
[Ac lent]
-13.8 -15.1 90 -16  1040.6  0.2  758  323    -8.8       
15 30.11.20 240 (ЮЗ) н/о    10/0 средняя 
[Ac und]
-15.1 -16.4 90 -15  1039.8  -1  758  325           
18 30.11.20 230 (ЮЗ) н/о    10/0 средняя 
[Ac trans]
-14.4 -15.7 90 -17  1039.3  -0.3  757  324           
21 30.11.20 240 (ЮЗ) н/о    10/0 верхняя 
[Cs]
-13.8 -15.1 90 -16  1039.1  -0.2  757  323           
00 01.12.20 240 (ЮЗ) н/о  слаб. снег  10/0 средняя 
[As trans]
-13.3 -14.6 90 -15  1038.6  -0.4  757  322  -16.6    0.0  равномерный
сухой снег
100% 
03 01.12.20 240 (ЮЗ) 4000 м  слаб. снег  10/0 средняя, верхняя 
[As trans|Cs]
-13.1 -14.4 90 -15  1038.3  -0.3  757  322           
06 01.12.20 270 (З) 20000 м  {снег}  9/0 средняя 
[Ac und]
-11.7 -13.7 85 -16  1038.5  0.3  757  320           
09 01.12.20 240 (ЮЗ) 20000 м    10/3 600 м средняя 
[Sc|Ac und]
-11.6 -13.6 85 -14  1038.8  0.4  757  320           
12 01.12.20 250 (З) н/о    10/10 600 м кучево-дожд. 
[Cb cap]
-11.5 -13.5 85 -15  1039.4  0.6  758  320    -11.2  0.4     
15 01.12.20 280 (З) н/о  слаб. ливневой снег  10/8 600 м кучево-дожд., средняя 
[Cb cap|As trans]
-11.8 -13.8 85 -15  1040  0.5  758  320           
18 01.12.20 260 (З) н/о  слаб. ливневой снег  10/10 600 м кучево-дожд. 
[Cb cap]
-12.4 -13.7 90 -12  1040.9  0.9  759  322           
21 01.12.20 280 (З) н/о  {ливн. осадки}  10/8 600 м кучево-дожд., средняя 
[Cb cap|As trans]
-12.8 -14.8 85 -17  1041.7  0.7  759  322           
00 02.12.20 230 (ЮЗ) н/о  {ливн. осадки}  10/3 600 м кучево-дожд., средняя 
[Cb cap|As trans]
-13.8 -15.8 85 -16  1043  760  324  -13.8    0.0  10  равномерный
сухой снег
100% 
03 02.12.20 250 (З) 20000 м  в посл. час снег  10/0 средняя 
[As op]
-14.5 -15.8 90 -15  1043.6  0.6  760  325  -14.5         
06 02.12.20 260 (З) 10 км  слаб. ливневой снег  9/4 600 м кучево-дожд., средняя 
[Cb cap|Ac trans]
-13 -15 85 -17  1043.4  -0.1  760  323           
09 02.12.20 240 (ЮЗ) 20000 м    10/5 600 м средняя 
[Sc|Ac As]
-12.6 -14.6 85 -15  1043.3  760  323           
12 02.12.20 250 (З) н/о  слаб. ливневой снег  10/10 600 м кучево-дожд. 
[Cb cap]
-12.6 -14.6 85 -15  1043.4  0.1  760  323    -12.2  0.9     
15 02.12.20 250 (З) н/о  {ливн. осадки}  8/0 средняя, верхняя 
[Ac lent|Ci sp]
-15.4 -16.7 90 -15  1043.4  -0.3  760  326           
18 02.12.20 140 (ЮВ) н/о    ясно 
-19.7 -20.9 90 -20  1043  -1  759  331           
21 02.12.20 220 (ЮЗ) н/о    10/0 верхняя 
[Cs]
-15 -16.3 90 -17  1040.8  -1.5  758  325           
00 03.12.20 210 (ЮЗ) н/о    10/0 средняя 
[As trans]
-15.4 -16.7 90 -19  1039.8  -1  758  325  -22.1    0.0  10  равномерный
сухой снег
100% 
Время (UTC), дата Ветер
(°,м/с) 
Видим.   Явления Облачность Т
(°С)
Тd
(°С)
f(%) Тe
(°С)
Pmin
(гПа)
dP
(гПа)
Po
(мм)
O2
(г/м3)
Тmin Tmax R s Состояние
почвы

Для получения пояснительной информации подведите курсор к названию столбца.

ПОГОДА в Червянке - архив

Всё, что Вы хотите узнать о погоде в Червянке - удобно и подробно!

Выберите нужную дату (начиная с 1 января 2019* года) и нажмите кнопку "Найти".
Будут отображены архивные сводки погоды по пункту Червянка, начиная с указанной даты.


Отображать данные в формате CSV (для использования в таблицах Excel)


Внимание! Наш архив погоды предназначен исключительно для личного некоммерческого использования в познавательных целях. Если Вам необходимы официальные справки о состоянии погоды (для производственных, юридических, коммерческих и т.п. целей), обращайтесь в органы Росгидромета.

*Примечание: данная дата относится к архиву по метеостанциям СССР (Россия, СНГ, Балтия).
Архив по метеостанциям Зарубежной Европы и Азии (кроме Китая) хранится 10 дней, по другим регионам земного шара (Китай, Африка, Америка, Австралия, Океания) - 1 день.

Червянка - район местоположения метеостанции


Название, широта, долгота, высота метеостанции:
Червянка 57.7°ш. 99.6°д. 220 м над ур. моря [Российская Федерация]

Дополнительная информация

В oтличие oт бoльшинства пoгoдных сайтoв мы публикуем пoдрoбную метеoинфoрмацию в детальнoм прoфессиoнальнoм фoрмате.

Характеристики температуры и влажнoсти вoздуха измеряются на высoте 2 м в тени вдали oт зданий и деревьев.
Скoрoсть ветра измеряется на высoте 10 м (на урoвне рoста челoвека скoрoсть ветра ниже в 1.5-2 раза). Если метеoстанция нахoдится в гoрoде или в лесу, тo скoрoсть ветра занижена на 2-4 м/с пo сравнению с oткрытым местoм. Скoрoсть ветра над акватoриями крупных рек и oзёр, а также на вершинах хoлмoв на 2-5 м/с выше, чем в oбычных услoвиях.
Атмoсфернoе давление в разных тoчках местнoсти мoжет значительнo oтличаться oт давления на метеoстанции, в зависимoсти oт услoвий рельефа (при пoдъёме на 10 м давление пoнижается примернo на 1 мм рт.ст.).